Regional Weather Roundup
Issued by NWS

Home | Current Version | Previous Version | Text Only | Print | Product List | Glossary Off
Versions: 1 2 3 4 5 6 7 8 9 10 11 12 13 14 15 16 17 18 19 20 21 22 23 24 25 26 27 28 29 30 31 32 33 34 35 36 37 38 39 40 41 42 43 44 45 46 47 48 49 50

000
ASUS43 KFSD 130902
RWRSD

WEATHER ROUNDUP FOR SOUTH DAKOTA
NATIONAL WEATHER SERVICE SIOUX FALLS SD
400 AM CDT SUN JUL 13 2014

NOTE: "FAIR" INDICATES FEW OR NO CLOUDS BELOW 12,000 FEET WITH NO
SIGNIFICANT WEATHER AND/OR OBSTRUCTIONS TO VISIBILITY.


SDZ001>005-009-010-012>017-131000-
NORTHWEST AND NORTH CENTRAL SOUTH DAKOTA

CITY           SKY/WX    TMP DP  RH WIND       PRES   REMARKS
BUFFALO          N/A     56  50  80 W6        30.12S
FAITH            N/A     59  56  89 NW8       30.14S
MOBRIDGE       CLEAR     60  58  92 N5        30.04F
$$

SDZ012>016-024>037-041>051-057-063-072>074-131000-
SOUTHWEST AND SOUTH CENTRAL SOUTH DAKOTA

CITY           SKY/WX    TMP DP  RH WIND       PRES   REMARKS
RAPID CTY ARPT CLEAR     62  57  83 NW8       30.19S
PIERRE         CLEAR     64  62  93 SW3       30.05F
CUSTER         CLEAR     55  50  83 NW5       30.33F
PHILIP         CLEAR     63  60  90 W7        30.11S
PINE RIDGE     CLEAR     59  59 100 W3        30.20F
WINNER         FAIR      65  60  84 CALM      30.08S
$$

SDZ004>011-016>023-039-040-131000-
NORTHEAST SOUTH DAKOTA

CITY           SKY/WX    TMP DP  RH WIND       PRES   REMARKS
ABERDEEN       CLEAR     56  54  93 NW6       30.01F
WATERTOWN      CLEAR     64  60  87 NW9       30.01R
SISSETON         N/A     57  54  89 NW6       29.98R
$$

SDZ017-020-022-023-036>040-048>070-131000-
SOUTHEAST SOUTH DAKOTA

CITY           SKY/WX    TMP DP  RH WIND       PRES   REMARKS
SIOUX FALLS    CLEAR     67  64  90 W5        30.01S
HURON          CLEAR     62  60  93 W6        30.00F
CHAMBERLAIN    PTCLDY    62  60  94 W5        30.06S
MITCHELL       CLOUDY    65  61  87 NW3       30.02S
YANKTON        CLEAR     64  63  94 W5        30.03S
$$

ABBREVIATIONS USED IN REMARKS
   TC - TEMPERATURE IN CELSIUS
  WCI - WIND CHILL INDEX
   HX - HEAT INDEX
  VSB - VISIBILITY




USA.gov is the U.S. government's official web portal to all federal, state and local government web resources and services.